Location: Dappach
(48.9767°N, 9.6998°E)
Time: 03:16:16
(UTC+00:00)

ATLAS 2AS CENTAUR R/B - Pass Details

Date: 23 May 2024
Orbit: 1017 x 1194 km, 63.7° (Epoch: 13 June)

Event Time Altitude Azimuth Distance (km) Brightness Sun altitude
Rises 01:31:02 0° 317° (NW) 3,921 5.9 -14.3°
Reaches altitude 10° 01:33:49 10° 321° (NW) 2,935 5.2 -14.1°
Maximum altitude 01:40:39 58° 41° (NE) 1,215 3.4 -13.5°
Drops below altitude 10° 01:47:11 10° 120° (ESE) 2,822 5.0 -12.9°
Sets 01:49:49 0° 124° (SE) 3,759 5.6 -12.6°
